Terminal Aerodrome Forecast
Issued by NWS Omaha/Valley, NE

Home | Current Version | Previous Version | Text Only | Print | Product List | Glossary On
Versions: 1 2 3 4 5 6 7 8 9 10 11 12 13 14 15 16 17 18 19 20 21 22 23 24 25 26 27 28 29 30 31 32 33 34 35 36 37 38 39 40 41 42 43 44 45
000
FTUS43 KOAX 291353 AAB
TAFLNK
TAF AMD
KLNK 291353Z 2914/3012 19005KT P6SM SCT030 BKN110
      TEMPO 2914/2917 4SM SHRA BKN030
     FM292100 33010KT P6SM BKN100
      TEMPO 2921/2924 3SM TSRA BKN040CB=

USA.gov is the U.S. government's official web portal to all federal, state and local government web resources and services.